status,avgMeasuredTime,avgSpeed,extID,medianMeasuredTime,TIMESTAMP,vehicleCount,_id,REPORT_ID
OK,683,11,744,683,2014-08-01T07:55:00,0,20746468,210067
OK,683,11,744,683,2014-08-01T08:00:00,0,20746799,210067
OK,683,11,744,683,2014-08-01T08:05:00,0,20747248,210067
OK,683,11,744,683,2014-08-01T08:10:00,0,20747621,210067
OK,683,11,744,683,2014-08-01T08:15:00,0,20748070,210067
OK,683,11,744,683,2014-08-01T08:20:00,0,20748519,210067
OK,683,11,744,683,2014-08-01T08:25:00,0,20748968,210067
OK,683,11,744,683,2014-08-01T08:30:00,0,20749417,210067
OK,683,11,744,683,2014-08-01T08:35:00,0,20749866,210067
OK,683,11,744,683,2014-08-01T08:40:00,0,20750315,210067
OK,683,11,744,683,2014-08-01T08:45:00,0,20750764,210067
OK,683,11,744,683,2014-08-01T08:50:00,0,20751213,210067
OK,683,11,744,683,2014-08-01T08:55:00,0,20751662,210067
OK,683,11,744,683,2014-08-01T09:00:00,0,20752111,210067
OK,683,11,744,683,2014-08-01T09:05:00,0,20752560,210067
OK,683,11,744,683,2014-08-01T09:10:00,0,20753009,210067
OK,683,11,744,683,2014-08-01T09:15:00,0,20753458,210067
OK,683,11,744,683,2014-08-01T09:20:00,0,20753907,210067
OK,683,11,744,683,2014-08-01T09:25:00,0,20754356,210067
OK,143,57,744,143,2014-08-01T09:30:00,1,20754805,210067
OK,143,57,744,143,2014-08-01T09:35:00,0,20755254,210067
OK,143,57,744,143,2014-08-01T09:40:00,0,20755703,210067
OK,1077,7,744,1077,2014-08-01T09:45:00,2,20756152,210067
OK,1077,7,744,1077,2014-08-01T09:50:00,0,20756601,210067
OK,1077,7,744,1077,2014-08-01T09:55:00,0,20757050,210067
OK,1077,7,744,1077,2014-08-01T10:00:00,0,20757499,210067
OK,1077,7,744,1077,2014-08-01T10:05:00,0,20757948,210067
OK,1077,7,744,1077,2014-08-01T10:10:00,0,20758397,210067
OK,1077,7,744,1077,2014-08-01T10:15:00,0,20758846,210067
OK,1077,7,744,1077,2014-08-01T10:20:00,0,20759295,210067
OK,1077,7,744,1077,2014-08-01T10:25:00,0,20759744,210067
OK,1077,7,744,1077,2014-08-01T10:30:00,0,20760193,210067
OK,1077,7,744,1077,2014-08-01T10:35:00,0,20760642,210067
OK,1077,7,744,1077,2014-08-01T10:40:00,0,20761091,210067
OK,1077,7,744,1077,2014-08-01T10:45:00,0,20761540,210067
OK,161,50,744,161,2014-08-01T10:50:00,1,20761989,210067
OK,161,50,744,161,2014-08-01T10:55:00,1,20762438,210067
OK,245,33,744,245,2014-08-01T11:00:00,1,20762887,210067
OK,245,33,744,245,2014-08-01T11:05:00,1,20763336,210067
OK,245,33,744,245,2014-08-01T11:10:00,0,20763785,210067
OK,245,33,744,245,2014-08-01T11:15:00,0,20764234,210067
OK,245,33,744,245,2014-08-01T11:20:00,0,20764682,210067
OK,222,36,744,222,2014-08-01T11:25:00,1,20765131,210067
OK,222,36,744,222,2014-08-01T11:30:00,0,20765580,210067
OK,222,36,744,222,2014-08-01T11:35:00,0,20766029,210067
OK,222,36,744,222,2014-08-01T11:40:00,0,20766478,210067
OK,222,36,744,222,2014-08-01T11:45:00,0,20766927,210067
OK,222,36,744,222,2014-08-01T11:50:00,0,20767376,210067
OK,222,36,744,222,2014-08-01T11:55:00,0,20767825,210067
OK,222,36,744,222,2014-08-01T12:00:00,0,20768274,210067
OK,222,36,744,222,2014-08-01T12:05:00,0,20768723,210067
OK,222,36,744,222,2014-08-01T12:10:00,0,20769172,210067
OK,222,36,744,222,2014-08-01T12:15:00,0,20769621,210067
OK,222,36,744,222,2014-08-01T12:20:00,0,20770070,210067
OK,222,36,744,222,2014-08-01T12:25:00,0,20770519,210067
OK,222,36,744,222,2014-08-01T12:30:00,0,20770968,210067
OK,222,36,744,222,2014-08-01T12:35:00,0,20771417,210067
OK,222,36,744,222,2014-08-01T12:40:00,0,20771866,210067
OK,539,15,744,539,2014-08-01T12:45:00,2,20772315,210067
OK,539,15,744,539,2014-08-01T12:50:00,2,20772764,210067
OK,539,15,744,539,2014-08-01T12:55:00,0,20773213,210067
OK,539,15,744,539,2014-08-01T13:00:00,0,20773662,210067
OK,539,15,744,539,2014-08-01T13:05:00,0,20774111,210067
OK,539,15,744,539,2014-08-01T13:10:00,0,20774560,210067
OK,539,15,744,539,2014-08-01T13:15:00,0,20775009,210067
OK,539,15,744,539,2014-08-01T13:20:00,0,20775458,210067
OK,539,15,744,539,2014-08-01T13:25:00,0,20775907,210067
OK,539,15,744,539,2014-08-01T13:30:00,0,20776356,210067
OK,539,15,744,539,2014-08-01T13:35:00,0,20776805,210067
OK,539,15,744,539,2014-08-01T13:40:00,0,20777254,210067
OK,418,19,744,418,2014-08-01T13:45:00,1,20777703,210067
OK,418,19,744,418,2014-08-01T13:50:00,1,20778152,210067
OK,418,19,744,418,2014-08-01T13:55:00,0,20778601,210067
OK,418,19,744,418,2014-08-01T14:00:00,0,20779050,210067
OK,418,19,744,418,2014-08-01T14:05:00,0,20779499,210067
OK,418,19,744,418,2014-08-01T14:10:00,0,20779948,210067
OK,418,19,744,418,2014-08-01T14:15:00,0,20780397,210067
OK,418,19,744,418,2014-08-01T14:20:00,0,20780846,210067
OK,418,19,744,418,2014-08-01T14:25:00,0,20781295,210067
OK,418,19,744,418,2014-08-01T14:30:00,0,20781744,210067
OK,418,19,744,418,2014-08-01T14:35:00,0,20782193,210067
OK,418,19,744,418,2014-08-01T14:40:00,0,20782642,210067
OK,418,19,744,418,2014-08-01T14:45:00,0,20783091,210067
OK,418,19,744,418,2014-08-01T14:50:00,0,20783540,210067
OK,418,19,744,418,2014-08-01T14:55:00,0,20783989,210067
OK,418,19,744,418,2014-08-01T15:00:00,0,20784438,210067
OK,418,19,744,418,2014-08-01T15:05:00,0,20784887,210067
OK,418,19,744,418,2014-08-01T15:10:00,0,20785336,210067
OK,418,19,744,418,2014-08-01T15:15:00,0,20785785,210067
OK,418,19,744,418,2014-08-01T15:20:00,0,20786234,210067
OK,418,19,744,418,2014-08-01T15:25:00,0,20786683,210067
OK,418,19,744,418,2014-08-01T15:30:00,0,20787132,210067
OK,418,19,744,418,2014-08-01T15:35:00,0,20787581,210067
OK,418,19,744,418,2014-08-01T15:40:00,0,20788030,210067
OK,418,19,744,418,2014-08-01T15:45:00,0,20788479,210067
OK,418,19,744,418,2014-08-01T15:50:00,0,20788928,210067
OK,418,19,744,418,2014-08-01T15:55:00,0,20789377,210067
OK,418,19,744,418,2014-08-01T16:00:00,0,20789826,210067
OK,418,19,744,418,2014-08-01T16:05:00,0,20790275,210067
OK,418,19,744,418,2014-08-01T16:10:00,0,20790724,210067
OK,418,19,744,418,2014-08-01T16:15:00,0,20791173,210067
OK,418,19,744,418,2014-08-01T16:20:00,0,20791622,210067
OK,418,19,744,418,2014-08-01T16:25:00,0,20792071,210067
OK,418,19,744,418,2014-08-01T16:30:00,0,20792520,210067
OK,418,19,744,418,2014-08-01T16:35:00,0,20792969,210067
OK,418,19,744,418,2014-08-01T16:40:00,0,20793418,210067
OK,418,19,744,418,2014-08-01T16:45:00,0,20793867,210067
OK,418,19,744,418,2014-08-01T16:50:00,0,20794316,210067
OK,418,19,744,418,2014-08-01T16:55:00,0,20794765,210067
OK,418,19,744,418,2014-08-01T17:00:00,0,20795214,210067
OK,418,19,744,418,2014-08-01T17:05:00,0,20795663,210067
OK,418,19,744,418,2014-08-01T17:10:00,0,20796112,210067
OK,191,42,744,191,2014-08-01T17:15:00,1,20796561,210067
OK,191,42,744,191,2014-08-01T17:20:00,1,20797010,210067
OK,191,42,744,191,2014-08-01T17:25:00,0,20797459,210067
OK,191,42,744,191,2014-08-01T17:30:00,0,20797908,210067
OK,191,42,744,191,2014-08-01T17:35:00,0,20798357,210067
OK,191,42,744,191,2014-08-01T17:40:00,0,20798806,210067
OK,191,42,744,191,2014-08-01T17:45:00,0,20799255,210067
OK,191,42,744,191,2014-08-01T17:50:00,0,20799704,210067
OK,191,42,744,191,2014-08-01T17:55:00,0,20800153,210067
OK,191,42,744,191,2014-08-01T18:00:00,0,20800602,210067
OK,191,42,744,191,2014-08-01T18:05:00,0,20801051,210067
OK,191,42,744,191,2014-08-01T18:10:00,0,20801500,210067
OK,191,42,744,191,2014-08-01T18:15:00,0,20801949,210067
OK,191,42,744,191,2014-08-01T18:20:00,0,20802398,210067
OK,191,42,744,191,2014-08-01T18:25:00,0,20802847,210067
OK,191,42,744,191,2014-08-01T18:30:00,0,20803296,210067
OK,191,42,744,191,2014-08-01T18:35:00,0,20803745,210067
OK,191,42,744,191,2014-08-01T18:40:00,0,20804194,210067
OK,191,42,744,191,2014-08-01T18:45:00,0,20804643,210067
OK,191,42,744,191,2014-08-01T18:50:00,0,20805092,210067
OK,191,42,744,191,2014-08-01T18:55:00,0,20805541,210067
OK,191,42,744,191,2014-08-01T19:00:00,0,20805990,210067
OK,191,42,744,191,2014-08-01T19:05:00,0,20806439,210067
OK,191,42,744,191,2014-08-01T19:10:00,0,20806888,210067
OK,191,42,744,191,2014-08-01T19:15:00,0,20807337,210067
OK,191,42,744,191,2014-08-01T19:20:00,0,20807786,210067
OK,191,42,744,191,2014-08-01T19:25:00,0,20808235,210067
OK,191,42,744,191,2014-08-01T19:30:00,0,20808684,210067
OK,191,42,744,191,2014-08-01T19:35:00,0,20809133,210067
OK,191,42,744,191,2014-08-01T19:40:00,0,20809582,210067
OK,191,42,744,191,2014-08-01T19:45:00,0,20810031,210067
OK,191,42,744,191,2014-08-01T19:50:00,0,20810480,210067
OK,191,42,744,191,2014-08-01T19:55:00,0,20810929,210067
OK,191,42,744,191,2014-08-01T20:20:00,0,20812166,210067
OK,191,42,744,191,2014-08-01T20:50:00,0,20813427,210067
OK,191,42,744,191,2014-08-01T21:20:00,0,20814715,210067
OK,191,42,744,191,2014-08-01T21:30:00,0,20815220,210067
OK,191,42,744,191,2014-08-01T21:40:00,0,20815677,210067
OK,191,42,744,191,2014-08-01T21:50:00,0,20816155,210067
OK,191,42,744,191,2014-08-01T21:55:00,0,20816390,210067
OK,191,42,744,191,2014-08-01T22:00:00,0,20816658,210067
OK,191,42,744,191,2014-08-01T22:05:00,0,20817107,210067
OK,191,42,744,191,2014-08-01T22:10:00,0,20817429,210067
OK,191,42,744,191,2014-08-01T22:15:00,0,20817858,210067
OK,191,42,744,191,2014-08-01T22:20:00,0,20818148,210067
OK,191,42,744,191,2014-08-01T22:25:00,0,20818464,210067
OK,191,42,744,191,2014-08-01T22:30:00,0,20818798,210067
OK,191,42,744,191,2014-08-01T22:40:00,0,20819282,210067
OK,191,42,744,191,2014-08-01T23:40:00,0,20821983,210067
OK,191,42,744,191,2014-08-01T23:45:00,0,20822206,210067
OK,191,42,744,191,2014-08-01T23:50:00,0,20822473,210067
OK,191,42,744,191,2014-08-01T23:55:00,0,20822799,210067
OK,191,42,744,191,2014-08-02T00:00:00,0,20823097,210067
OK,191,42,744,191,2014-08-02T00:05:00,0,20823546,210067
OK,191,42,744,191,2014-08-02T00:10:00,0,20823995,210067
OK,191,42,744,191,2014-08-02T00:15:00,0,20824444,210067
OK,191,42,744,191,2014-08-02T00:20:00,0,20824893,210067
OK,191,42,744,191,2014-08-02T00:25:00,0,20825342,210067
OK,191,42,744,191,2014-08-02T00:30:00,0,20825791,210067
OK,191,42,744,191,2014-08-02T00:35:00,0,20826240,210067
OK,191,42,744,191,2014-08-02T00:40:00,0,20826689,210067
OK,191,42,744,191,2014-08-02T00:45:00,0,20827138,210067
OK,191,42,744,191,2014-08-02T00:50:00,0,20827587,210067
OK,191,42,744,191,2014-08-02T00:55:00,0,20828036,210067
OK,191,42,744,191,2014-08-02T01:00:00,0,20828485,210067
OK,191,42,744,191,2014-08-02T01:05:00,0,20828934,210067
OK,191,42,744,191,2014-08-02T01:10:00,0,20829383,210067
OK,191,42,744,191,2014-08-02T01:15:00,0,20829832,210067
OK,191,42,744,191,2014-08-02T01:20:00,0,20830281,210067
OK,191,42,744,191,2014-08-02T01:25:00,0,20830730,210067
OK,191,42,744,191,2014-08-02T01:30:00,0,20831179,210067
OK,191,42,744,191,2014-08-02T01:35:00,0,20831628,210067
OK,191,42,744,191,2014-08-02T01:40:00,0,20832077,210067
OK,191,42,744,191,2014-08-02T01:45:00,0,20832526,210067
OK,191,42,744,191,2014-08-02T01:50:00,0,20832975,210067
OK,191,42,744,191,2014-08-02T01:55:00,0,20833424,210067
OK,191,42,744,191,2014-08-02T02:00:00,0,20833873,210067
OK,191,42,744,191,2014-08-02T02:05:00,0,20834322,210067
OK,191,42,744,191,2014-08-02T02:10:00,0,20834771,210067
OK,191,42,744,191,2014-08-02T02:15:00,0,20835220,210067
OK,191,42,744,191,2014-08-02T02:20:00,0,20835669,210067
OK,191,42,744,191,2014-08-02T02:25:00,0,20836118,210067
OK,191,42,744,191,2014-08-02T02:30:00,0,20836567,210067
OK,191,42,744,191,2014-08-02T02:35:00,0,20837016,210067
OK,191,42,744,191,2014-08-02T02:40:00,0,20837465,210067
OK,191,42,744,191,2014-08-02T02:45:00,0,20837914,210067
OK,191,42,744,191,2014-08-02T02:50:00,0,20838363,210067
OK,191,42,744,191,2014-08-02T02:55:00,0,20838812,210067
OK,191,42,744,191,2014-08-02T03:00:00,0,20839261,210067
OK,191,42,744,191,2014-08-02T03:05:00,0,20839710,210067
OK,191,42,744,191,2014-08-02T03:10:00,0,20840159,210067
OK,191,42,744,191,2014-08-02T03:15:00,0,20840608,210067
OK,191,42,744,191,2014-08-02T03:20:00,0,20841057,210067
OK,191,42,744,191,2014-08-02T03:25:00,0,20841506,210067
OK,191,42,744,191,2014-08-02T03:30:00,0,20841955,210067
OK,191,42,744,191,2014-08-02T03:35:00,0,20842404,210067
OK,191,42,744,191,2014-08-02T03:40:00,0,20842853,210067
OK,191,42,744,191,2014-08-02T03:45:00,0,20843302,210067
OK,191,42,744,191,2014-08-02T03:50:00,0,20843751,210067
OK,191,42,744,191,2014-08-02T03:55:00,0,20844200,210067
OK,191,42,744,191,2014-08-02T04:05:00,0,20844780,210067
OK,191,42,744,191,2014-08-02T04:10:00,0,20845110,210067
OK,191,42,744,191,2014-08-02T04:15:00,0,20845290,210067
OK,191,42,744,191,2014-08-02T04:20:00,0,20845646,210067
OK,191,42,744,191,2014-08-02T04:30:00,0,20846202,210067
OK,191,42,744,191,2014-08-02T04:35:00,0,20846569,210067
OK,191,42,744,191,2014-08-02T04:40:00,0,20846952,210067
OK,191,42,744,191,2014-08-02T04:45:00,0,20847211,210067
OK,191,42,744,191,2014-08-02T04:50:00,0,20847577,210067
OK,191,42,744,191,2014-08-02T05:00:00,0,20848294,210067
OK,191,42,744,191,2014-08-02T05:10:00,0,20848811,210067
OK,191,42,744,191,2014-08-02T05:15:00,0,20849004,210067
OK,191,42,744,191,2014-08-02T05:20:00,0,20849348,210067
OK,191,42,744,191,2014-08-02T05:35:00,0,20850145,210067
OK,191,42,744,191,2014-08-02T05:40:00,0,20850438,210067
OK,191,42,744,191,2014-08-02T05:45:00,0,20850739,210067
OK,191,42,744,191,2014-08-02T05:50:00,0,20851097,210067
OK,191,42,744,191,2014-08-02T05:55:00,0,20851351,210067
OK,191,42,744,191,2014-08-02T06:00:00,0,20851654,210067
OK,191,42,744,191,2014-08-02T06:05:00,0,20852103,210067
OK,191,42,744,191,2014-08-02T06:10:00,0,20852552,210067
OK,191,42,744,191,2014-08-02T06:15:00,0,20853001,210067
OK,191,42,744,191,2014-08-02T06:20:00,0,20853450,210067
OK,191,42,744,191,2014-08-02T06:25:00,0,20853899,210067
OK,191,42,744,191,2014-08-02T06:30:00,0,20854348,210067
OK,191,42,744,191,2014-08-02T06:35:00,0,20854797,210067
OK,191,42,744,191,2014-08-02T06:40:00,0,20855246,210067
OK,191,42,744,191,2014-08-02T06:45:00,0,20855695,210067
OK,191,42,744,191,2014-08-02T06:50:00,0,20856144,210067
OK,191,42,744,191,2014-08-02T06:55:00,0,20856593,210067
OK,191,42,744,191,2014-08-02T07:00:00,0,20857042,210067
OK,191,42,744,191,2014-08-02T07:05:00,0,20857491,210067
OK,191,42,744,191,2014-08-02T07:10:00,0,20857940,210067
OK,191,42,744,191,2014-08-02T07:15:00,0,20858389,210067
OK,191,42,744,191,2014-08-02T07:20:00,0,20858838,210067
OK,191,42,744,191,2014-08-02T07:25:00,0,20859287,210067
OK,191,42,744,191,2014-08-02T07:30:00,0,20859736,210067
OK,191,42,744,191,2014-08-02T07:35:00,0,20860185,210067
OK,191,42,744,191,2014-08-02T07:40:00,0,20860634,210067
OK,191,42,744,191,2014-08-02T07:45:00,0,20861083,210067
OK,191,42,744,191,2014-08-02T07:50:00,0,20861532,210067
OK,191,42,744,191,2014-08-02T07:55:00,0,20861981,210067
OK,191,42,744,191,2014-08-02T08:00:00,0,20862430,210067
OK,191,42,744,191,2014-08-02T08:05:00,0,20862879,210067
OK,191,42,744,191,2014-08-02T08:10:00,0,20863328,210067
OK,191,42,744,191,2014-08-02T08:15:00,0,20863777,210067
OK,191,42,744,191,2014-08-02T08:20:00,0,20864226,210067
OK,191,42,744,191,2014-08-02T08:25:00,0,20864675,210067
OK,191,42,744,191,2014-08-02T08:30:00,0,20865124,210067
OK,191,42,744,191,2014-08-02T08:35:00,0,20865573,210067
OK,191,42,744,191,2014-08-02T08:40:00,0,20866022,210067
OK,191,42,744,191,2014-08-02T08:45:00,0,20866471,210067
OK,191,42,744,191,2014-08-02T08:50:00,0,20866920,210067
OK,234,34,744,234,2014-08-02T08:55:00,2,20867369,210067
OK,182,44,744,182,2014-08-02T09:00:00,1,20867818,210067
OK,182,44,744,182,2014-08-02T09:05:00,0,20868267,210067
OK,182,44,744,182,2014-08-02T09:10:00,0,20868716,210067
OK,182,44,744,182,2014-08-02T09:15:00,0,20869165,210067
OK,182,44,744,182,2014-08-02T09:20:00,0,20869614,210067
OK,182,44,744,182,2014-08-02T09:25:00,0,20870063,210067
OK,182,44,744,182,2014-08-02T09:30:00,0,20870512,210067
OK,182,44,744,182,2014-08-02T09:35:00,0,20870961,210067
OK,182,44,744,182,2014-08-02T09:40:00,0,20871410,210067
OK,182,44,744,182,2014-08-02T09:45:00,0,20871859,210067
OK,163,50,744,163,2014-08-02T09:50:00,1,20872308,210067
OK,163,50,744,163,2014-08-02T09:55:00,1,20872757,210067
OK,163,50,744,163,2014-08-02T10:00:00,0,20873206,210067
OK,163,50,744,163,2014-08-02T10:05:00,0,20873655,210067
OK,163,50,744,163,2014-08-02T10:10:00,0,20874104,210067
OK,163,50,744,163,2014-08-02T10:15:00,0,20874553,210067
OK,163,50,744,163,2014-08-02T10:20:00,0,20875002,210067
OK,163,50,744,163,2014-08-02T10:25:00,0,20875451,210067
OK,163,50,744,163,2014-08-02T10:30:00,0,20875900,210067
OK,163,50,744,163,2014-08-02T10:35:00,0,20876349,210067
OK,163,50,744,163,2014-08-02T10:40:00,0,20876798,210067
OK,163,50,744,163,2014-08-02T10:45:00,0,20877247,210067
OK,163,50,744,163,2014-08-02T10:50:00,0,20877696,210067
OK,163,50,744,163,2014-08-02T10:55:00,0,20878145,210067
OK,163,50,744,163,2014-08-02T11:00:00,0,20878594,210067
OK,163,50,744,163,2014-08-02T11:05:00,0,20879043,210067
OK,163,50,744,163,2014-08-02T11:10:00,0,20879492,210067
OK,163,50,744,163,2014-08-02T11:15:00,0,20879941,210067
OK,163,50,744,163,2014-08-02T11:20:00,0,20880390,210067
OK,163,50,744,163,2014-08-02T11:25:00,0,20880839,210067
OK,163,50,744,163,2014-08-02T11:30:00,0,20881288,210067
OK,163,50,744,163,2014-08-02T11:35:00,0,20881737,210067
OK,163,50,744,163,2014-08-02T11:40:00,0,20882186,210067
OK,163,50,744,163,2014-08-02T11:45:00,0,20882635,210067
OK,163,50,744,163,2014-08-02T11:50:00,0,20883084,210067
OK,163,50,744,163,2014-08-02T11:55:00,0,20883533,210067
OK,163,50,744,163,2014-08-02T12:00:00,0,20883982,210067
OK,163,50,744,163,2014-08-02T12:05:00,0,20884431,210067
OK,163,50,744,163,2014-08-02T12:10:00,0,20884880,210067
OK,163,50,744,163,2014-08-02T12:15:00,0,20885329,210067
OK,163,50,744,163,2014-08-02T12:20:00,0,20885778,210067
OK,163,50,744,163,2014-08-02T12:25:00,0,20886227,210067
OK,163,50,744,163,2014-08-02T12:30:00,0,20886676,210067
OK,163,50,744,163,2014-08-02T12:35:00,0,20887125,210067
OK,163,50,744,163,2014-08-02T12:40:00,0,20887574,210067
OK,163,50,744,163,2014-08-02T12:45:00,0,20888023,210067
OK,163,50,744,163,2014-08-02T12:50:00,0,20888472,210067
OK,163,50,744,163,2014-08-02T12:55:00,0,20888921,210067
OK,163,50,744,163,2014-08-02T13:00:00,0,20889370,210067
OK,163,50,744,163,2014-08-02T13:05:00,0,20889819,210067
OK,163,50,744,163,2014-08-02T13:10:00,0,20890268,210067
OK,171,47,744,171,2014-08-02T13:15:00,1,20890717,210067
OK,171,47,744,171,2014-08-02T13:20:00,0,20891166,210067
OK,171,47,744,171,2014-08-02T13:25:00,0,20891615,210067
OK,171,47,744,171,2014-08-02T13:30:00,0,20892064,210067
OK,171,47,744,171,2014-08-02T13:35:00,0,20892513,210067
OK,171,47,744,171,2014-08-02T13:40:00,0,20892962,210067
OK,171,47,744,171,2014-08-02T13:45:00,0,20893411,210067
OK,171,47,744,171,2014-08-02T13:50:00,0,20893860,210067
OK,171,47,744,171,2014-08-02T13:55:00,0,20894309,210067
OK,171,47,744,171,2014-08-02T14:00:00,0,20894758,210067
OK,171,47,744,171,2014-08-02T14:05:00,0,20895207,210067
OK,171,47,744,171,2014-08-02T14:10:00,0,20895656,210067
OK,171,47,744,171,2014-08-02T14:15:00,0,20896105,210067
OK,171,47,744,171,2014-08-02T14:20:00,0,20896554,210067
OK,171,47,744,171,2014-08-02T14:25:00,0,20897003,210067
OK,171,47,744,171,2014-08-02T14:30:00,0,20897452,210067
OK,171,47,744,171,2014-08-02T14:35:00,0,20897901,210067
OK,171,47,744,171,2014-08-02T14:40:00,0,20898350,210067
OK,171,47,744,171,2014-08-02T14:45:00,0,20898799,210067
OK,171,47,744,171,2014-08-02T14:50:00,0,20899248,210067
OK,171,47,744,171,2014-08-02T14:55:00,0,20899697,210067
OK,171,47,744,171,2014-08-02T15:00:00,0,20900146,210067
OK,171,47,744,171,2014-08-02T15:05:00,0,20900595,210067
OK,171,47,744,171,2014-08-02T15:10:00,0,20901044,210067
OK,171,47,744,171,2014-08-02T15:15:00,0,20901493,210067
OK,171,47,744,171,2014-08-02T15:20:00,0,20901942,210067
OK,171,47,744,171,2014-08-02T15:25:00,0,20902391,210067
OK,171,47,744,171,2014-08-02T15:30:00,0,20902840,210067
OK,171,47,744,171,2014-08-02T15:35:00,0,20903289,210067
OK,171,47,744,171,2014-08-02T15:40:00,0,20903738,210067
OK,171,47,744,171,2014-08-02T15:45:00,0,20904187,210067
OK,171,47,744,171,2014-08-02T15:50:00,0,20904636,210067
OK,171,47,744,171,2014-08-02T15:55:00,0,20905085,210067
OK,171,47,744,171,2014-08-02T16:00:00,0,20905534,210067
OK,171,47,744,171,2014-08-02T16:05:00,0,20905983,210067
OK,171,47,744,171,2014-08-02T16:10:00,0,20906432,210067
OK,171,47,744,171,2014-08-02T16:15:00,0,20906881,210067
OK,171,47,744,171,2014-08-02T16:20:00,0,20907330,210067
OK,171,47,744,171,2014-08-02T16:25:00,0,20907779,210067
OK,171,47,744,171,2014-08-02T16:30:00,0,20908228,210067
OK,171,47,744,171,2014-08-02T16:35:00,0,20908677,210067
OK,171,47,744,171,2014-08-02T16:40:00,0,20909126,210067
OK,171,47,744,171,2014-08-02T16:45:00,0,20909575,210067
OK,171,47,744,171,2014-08-02T16:50:00,0,20910024,210067
OK,171,47,744,171,2014-08-02T16:55:00,0,20910473,210067
OK,171,47,744,171,2014-08-02T17:00:00,0,20910922,210067
OK,171,47,744,171,2014-08-02T17:05:00,0,20911371,210067
OK,171,47,744,171,2014-08-02T17:10:00,0,20911820,210067
OK,171,47,744,171,2014-08-02T17:15:00,0,20912269,210067
OK,171,47,744,171,2014-08-02T17:20:00,0,20912718,210067
OK,171,47,744,171,2014-08-02T17:25:00,0,20913167,210067
OK,171,47,744,171,2014-08-02T17:30:00,0,20913616,210067
OK,171,47,744,171,2014-08-02T17:35:00,0,20914065,210067
OK,171,47,744,171,2014-08-02T17:40:00,0,20914514,210067
OK,171,47,744,171,2014-08-02T17:45:00,0,20914963,210067
OK,171,47,744,171,2014-08-02T17:50:00,0,20915412,210067
OK,171,47,744,171,2014-08-02T17:55:00,0,20915861,210067
OK,171,47,744,171,2014-08-02T18:00:00,0,20916310,210067
OK,171,47,744,171,2014-08-02T18:05:00,0,20916759,210067
OK,171,47,744,171,2014-08-02T18:10:00,0,20917208,210067
OK,171,47,744,171,2014-08-02T18:15:00,0,20917657,210067
OK,171,47,744,171,2014-08-02T18:20:00,0,20918106,210067
OK,171,47,744,171,2014-08-02T18:25:00,0,20918555,210067
OK,171,47,744,171,2014-08-02T18:30:00,0,20919004,210067
OK,171,47,744,171,2014-08-02T18:35:00,0,20919453,210067
OK,171,47,744,171,2014-08-02T18:40:00,0,20919902,210067
OK,171,47,744,171,2014-08-02T18:45:00,0,20920351,210067
OK,171,47,744,171,2014-08-02T18:50:00,0,20920800,210067
OK,171,47,744,171,2014-08-02T18:55:00,0,20921249,210067
OK,171,47,744,171,2014-08-02T19:00:00,0,20921698,210067
OK,171,47,744,171,2014-08-02T19:05:00,0,20922147,210067
OK,171,47,744,171,2014-08-02T19:10:00,0,20922596,210067
OK,171,47,744,171,2014-08-02T19:15:00,0,20923045,210067
OK,171,47,744,171,2014-08-02T19:20:00,0,20923494,210067
OK,171,47,744,171,2014-08-02T19:25:00,0,20923943,210067
OK,171,47,744,171,2014-08-02T19:30:00,0,20924392,210067
OK,171,47,744,171,2014-08-02T19:35:00,0,20924841,210067
OK,171,47,744,171,2014-08-02T19:40:00,0,20925290,210067
OK,171,47,744,171,2014-08-02T19:45:00,0,20925739,210067
OK,171,47,744,171,2014-08-02T19:50:00,0,20926188,210067
OK,171,47,744,171,2014-08-02T19:55:00,0,20926637,210067
OK,171,47,744,171,2014-08-02T20:00:00,0,20927086,210067
OK,171,47,744,171,2014-08-02T20:05:00,0,20927535,210067
OK,171,47,744,171,2014-08-02T20:10:00,0,20927984,210067
OK,171,47,744,171,2014-08-02T20:15:00,0,20928433,210067
OK,171,47,744,171,2014-08-02T20:20:00,0,20928882,210067
OK,171,47,744,171,2014-08-02T20:25:00,0,20929331,210067
OK,171,47,744,171,2014-08-02T20:30:00,0,20929780,210067
OK,171,47,744,171,2014-08-02T20:35:00,0,20930229,210067
OK,171,47,744,171,2014-08-02T20:40:00,0,20930678,210067
OK,171,47,744,171,2014-08-02T20:45:00,0,20931127,210067
OK,171,47,744,171,2014-08-02T20:50:00,0,20931576,210067
OK,171,47,744,171,2014-08-02T20:55:00,0,20932025,210067
OK,171,47,744,171,2014-08-02T21:00:00,0,20932474,210067
OK,171,47,744,171,2014-08-02T21:05:00,0,20932923,210067
OK,171,47,744,171,2014-08-02T21:10:00,0,20933372,210067
OK,171,47,744,171,2014-08-02T21:15:00,0,20933821,210067
OK,171,47,744,171,2014-08-02T21:20:00,0,20934270,210067
OK,171,47,744,171,2014-08-02T21:25:00,0,20934719,210067
OK,171,47,744,171,2014-08-02T21:30:00,0,20935168,210067
OK,171,47,744,171,2014-08-02T21:35:00,0,20935617,210067
OK,171,47,744,171,2014-08-02T21:40:00,0,20936066,210067